Flag for Canada Weather past 2 weeks in Red Deer, Alberta, Canada

Now
64 °F

Passing clouds.


Feels Like: 64 °F
Forecast: 49 / 81 °F
Wind: 5 mph from Southwest

Location: Red Deer

Current Time: Jul 7, 2015 at 8:46:31 PM

Latest Report: Jul 7, 2015 at 8:00 PM


Visibility: 10 mi

Pressure: 30.08 "Hg (27.20 "Hg at 857m altitude)

Humidity: 60%

Dew point: 50 °F

Location of Red DeerLocation

Historic Weather in Red Deer — Graph

°F

Red Deer temperature yesterday

Maximum temperature yesterday: 73 °F (at 3:00 PM)
Minimum temperature yesterday: 41 °F (at 4:00 AM)
Average temperature yesterday: 58 °F

Past Weeks' High & Low Weather Summary

 TemperatureHumidityPressure
High84 °F (Jun 27, 4:00 PM)100% (Jul 2, 3:00 AM)30.26 "Hg (Jul 2, 3:00 AM)
Low41 °F (Jul 6, 4:00 AM)29% (Jun 24, 3:00 PM)29.81 "Hg (Jul 3, 7:00 PM)
Average64 °F68%30.06 "Hg
* Reported Jun 22 7:00 PM — Jul 7 7:00 PM, Red Deer, Weather by CustomWeather, © 2015

Note: Actual official high and low records may vary slightly from our data, if they occured in-between our weather recording intervals... More about our weather records

Advertising

Red Deer weather history for previous 24 hours

 ConditionsComfort  
Time TempWeatherWind HumidityBarometerVisibility
7:00 PM
Tue, Jul 7
66 °FBroken clouds.8 mph56%30.09 "Hg10 mi
6:00 PM66 °FBroken clouds.3 mph60%30.11 "Hg12 mi
5:00 PM64 °FPartly sunny.No wind60%30.13 "Hg12 mi
4:00 PM64 °FPartly sunny.2 mph56%30.15 "Hg10 mi
3:00 PM64 °FPartly sunny.2 mph56%30.17 "Hg10 mi
2:00 PM63 °FPartly sunny.6 mph64%30.19 "Hg10 mi
1:00 PM61 °FPartly sunny.6 mph68%30.19 "Hg12 mi
12:00 PM59 °FPartly sunny.7 mph77%30.20 "Hg12 mi
11:00 AM59 °FMostly cloudy.10 mph72%30.21 "Hg10 mi
10:00 AM55 °FPartly sunny.6 mph82%30.22 "Hg12 mi
9:00 AM54 °FMostly cloudy.9 mph88%30.22 "Hg12 mi
8:00 AM54 °FMostly cloudy.7 mph88%30.21 "Hg12 mi
7:00 AM52 °FPassing clouds.7 mph88%30.19 "Hg12 mi
6:00 AM50 °FPassing clouds.6 mph88%30.16 "Hg8 mi
5:00 AM50 °FPassing clouds.7 mph88%30.15 "Hg8 mi
4:00 AM48 °FFog.No wind94%30.14 "Hg5 mi
3:00 AM48 °FPassing clouds.6 mph94%30.12 "Hg15 mi
2:00 AM48 °FPassing clouds.5 mph94%30.12 "Hg15 mi
1:00 AM52 °FPassing clouds.6 mph94%30.12 "Hg15 mi
12:00 AM57 °FPartly cloudy.5 mph82%30.12 "Hg15 mi
11:00 PM
Mon, Jul 6
57 °FPassing clouds.7 mph82%30.11 "Hg15 mi
10:00 PM59 °FOvercast.9 mph82%30.11 "Hg15 mi
9:00 PM61 °FCloudy.9 mph72%30.10 "Hg15 mi
8:00 PM66 °FScattered showers. Cloudy.8 mph52%30.06 "Hg15 mi
Weather by CustomWeather, © 2015

See weather overviewHow to use our weather pages